Wind_Speed
21 32 48 48 49 47 41 38 25 40 37 40 29 26 23 27 27 21 20 21 20 24 26 27 25 21 23 23 23 21 16 16 14 13 14 15 18 21 26 23 20 19 22
25 22 32 51 50 52 51 49 32 45 43 47 42 38 29 33 35 29 25 22 18 23 23 23 22 22 22 23 25 24 22 21 19 17 20 21 21 23 23 18 18 21 22
35 32 29 38 53 54 56 51 48 41 41 42 43 33 31 39 37 33 30 25 22 21 19 21 19 19 20 23 25 23 24 24 25 23 21 26 30 30 21 22 19 18 20
33 40 36 33 38 51 58 57 56 53 44 44 45 47 47 42 39 36 33 34 32 29 30 24 26 22 22 24 24 24 22 24 27 30 27 26 26 29 25 26 27 25 25
33 33 42 41 39 41 47 58 62 59 54 50 58 57 57 50 49 43 41 43 43 40 33 33 32 29 24 27 27 27 25 25 23 26 29 27 29 31 31 27 25 24 25
29 34 36 40 47 44 42 43 52 62 65 67 62 60 58 56 54 53 47 46 47 48 48 45 40 39 35 33 29 27 28 26 26 25 28 31 30 33 31 26 28 20 29
30 32 36 40 43 48 47 44 45 51 57 63 68 70 65 63 59 53 49 50 49 51 50 49 49 40 43 40 39 35 34 28 24 31 33 32 32 31 29 26 20 24 31
31 31 35 38 43 48 53 52 51 52 55 56 60 70 72 67 64 64 59 56 57 56 53 53 52 51 44 43 43 41 34 32 29 30 33 34 34 32 32 33 29 29 31
42 36 34 37 41 46 50 56 57 61 65 56 58 57 63 67 66 67 69 66 61 61 60 58 57 60 57 52 49 47 43 41 38 36 37 38 35 32 34 32 28 29 27
46 43 39 38 40 43 46 52 61 62 65 68 69 60 64 64 64 64 67 71 71 70 65 64 65 66 64 63 60 57 53 45 46 44 44 42 38 39 40 38 32 29 29
47 49 44 43 39 42 45 47 53 59 67 68 70 70 71 70 66 68 69 67 70 71 69 68 69 70 69 70 67 65 63 55 48 53 50 47 44 42 42 39 36 37 32
52 48 44 42 42 41 44 46 48 53 58 64 70 75 75 77 76 75 77 77 74 75 74 74 77 81 79 77 76 70 64 61 62 61 61 52 47 44 43 47 43 39 38
56 49 46 43 42 43 46 47 49 50 53 57 63 68 75 80 82 83 86 85 83 84 83 85 88 87 83 81 77 75 73 75 71 62 62 59 52 49 45 44 50 49 40
55 49 44 43 42 44 45 47 49 51 51 54 57 60 66 70 74 78 83 87 90 90 91 90 89 85 85 84 81 79 78 77 72 63 65 61 63 58 53 49 51 50 46
51 48 44 43 42 43 45 47 49 50 51 53 54 54 55 58 64 69 73 77 82 86 91 95 95 94 92 90 85 81 73 74 70 67 65 65 65 66 63 56 53 54 52
49 46 43 41 39 40 41 45 47 49 54 56 57 58 59 59 60 62 64 68 70 75 81 87 90 93 95 95 93 89 81 78 74 72 71 70 69 68 66 62 55 57 57
45 44 39 37 38 39 42 46 51 57 57 61 62 63 64 64 62 62 63 65 67 70 69 73 79 85 89 92 96 95 93 87 81 80 78 77 76 73 70 64 57 55 51
45 43 42 43 44 47 50 54 56 59 62 64 63 62 62 59 58 60 62 64 66 68 70 74 76 78 82 87 91 95 94 95 91 88 85 80 84 80 75 69 58 55 66
46 47 48 50 54 57 60 62 62 61 60 61 65 67 64 60 61 64 65 67 67 68 70 70 75 78 79 82 85 89 92 92 92 95 92 90 83 86 81 76 76 79 69
52 54 56 60 64 65 65 64 65 65 64 65 65 65 69 67 67 69 69 66 66 68 70 71 72 73 73 74 75 77 80 83 88 90 92 93 93 89 84 84 81 81 81
59 62 65 66 66 67 69 69 68 66 65 65 68 71 74 72 70 66 66 65 66 66 67 67 67 68 66 63 67 66 70 72 76 83 88 93 97 93 90 87 86 85 82
64 65 66 68 71 73 71 70 71 73 74 75 73 70 67 63 62 63 62 57 56 57 57 57 57 56 55 56 58 55 60 62 64 70 79 86 93 99 93 91 90 88 87
65 66 70 71 71 73 77 77 74 70 66 63 60 60 59 54 50 48 47 47 47 47 47 47 48 49 47 48 50 50 53 52 52 52 62 74 82 87 92 92 90 90 88
68 71 72 76 79 78 74 68 63 60 55 49 44 42 41 39 38 37 38 40 41 43 43 41 40 38 39 38 38 39 39 42 45 48 50 56 64 76 83 88 88 87 86
73 75 77 77 75 70 63 55 46 38 35 33 32 31 29 29 31 32 33 32 31 31 31 32 30 30 30 35 33 31 31 36 40 45 45 47 49 59 73 76 78 77 81
78 77 74 70 64 54 44 34 29 27 26 26 26 26 28 29 30 30 26 23 22 22 21 23 25 22 24 27 26 28 31 36 40 44 43 37 41 52 60 63 66 71 71
Wind_Direction
234 233 226 225 224 224 213 206 224 231 225 222 232 241 248 263 265 265 276 285 276 260 254 260 259 256 246 257 270 271 266 279 290 272 286 294 303 278 304 307 297 308 311
237 228 229 226 225 224 225 222 227 224 229 226 231 239 256 258 261 264 262 267 268 257 255 255 257 262 260 263 273 268 271 278 273 272 273 278 271 276 288 302 307 302 306
241 244 240 233 226 227 232 234 232 223 231 231 232 221 235 250 250 250 254 245 243 246 250 251 248 258 269 267 268 271 275 277 272 265 262 267 272 286 283 295 308 310 303
258 242 237 240 234 232 232 236 234 236 227 230 232 226 234 243 246 247 252 243 243 249 248 248 251 256 267 270 268 270 271 272 269 262 261 268 275 271 276 287 286 291 298
267 259 243 239 238 236 238 238 237 238 237 234 230 233 236 241 242 246 248 249 251 253 252 253 256 256 260 262 265 272 274 272 271 275 262 256 262 265 271 281 296 299 304
275 260 254 246 239 238 237 241 240 239 237 232 233 238 240 241 244 245 246 253 254 254 253 259 261 257 252 252 251 250 261 270 267 278 273 267 273 271 269 282 284 269 296
298 275 258 249 244 239 235 239 237 244 244 242 240 242 246 241 242 245 246 248 249 250 253 256 256 260 257 253 255 257 262 267 271 273 276 276 270 269 270 264 262 273 289
304 286 271 261 247 241 238 236 236 234 244 251 251 245 247 250 245 248 252 250 247 249 251 252 254 257 263 254 249 252 257 261 262 258 266 274 275 259 264 260 265 273 281
310 300 282 263 258 250 243 239 237 235 237 241 247 250 250 251 251 251 251 251 253 254 253 253 253 256 260 258 250 248 258 261 260 259 253 256 258 263 263 260 263 271 280
307 301 288 277 264 254 252 245 242 241 240 244 242 243 246 245 247 246 250 249 250 253 250 254 255 255 257 257 256 254 260 266 258 258 259 257 257 260 261 256 250 265 269
302 300 292 282 271 262 255 252 250 246 245 245 247 248 250 246 244 242 242 243 244 248 248 248 249 251 251 251 252 254 258 263 265 265 257 253 249 251 254 251 253 256 261
301 294 286 279 273 267 261 257 254 252 251 249 249 250 251 251 252 253 252 249 248 247 245 245 244 245 248 250 252 255 254 257 265 272 256 252 247 246 248 248 248 253 256
299 291 286 278 271 266 261 257 257 257 257 255 255 254 253 253 255 255 255 256 258 258 258 259 257 256 254 253 251 253 256 261 265 264 249 246 244 242 247 247 252 253 260
294 289 285 281 274 267 261 259 261 259 258 258 259 259 259 258 257 257 258 258 256 256 258 259 258 256 257 257 256 255 255 258 258 254 247 245 244 245 243 245 249 248 253
290 289 288 281 273 265 260 261 264 266 266 267 267 265 264 263 262 260 259 259 258 257 257 257 257 257 256 254 253 253 248 249 248 246 247 244 244 245 247 249 249 250 253
287 285 282 277 270 265 266 269 271 274 277 275 274 271 269 266 266 262 260 258 259 261 258 257 257 257 255 255 253 251 247 243 243 245 245 242 241 243 245 246 249 251 253
280 279 275 273 274 275 276 276 280 282 279 278 278 276 275 274 271 267 264 261 258 256 256 257 257 257 255 254 253 251 250 243 243 241 241 238 237 239 241 241 247 253 251
280 278 277 277 277 280 282 282 280 279 278 279 277 275 273 272 273 272 270 267 264 262 261 257 255 255 256 255 254 252 249 248 245 241 241 241 235 235 238 237 233 236 244
277 276 276 277 282 283 283 285 284 282 279 277 280 280 277 274 275 276 274 271 267 265 263 262 258 255 255 256 255 255 254 249 246 243 240 239 238 237 236 236 233 238 242
280 281 282 284 286 287 286 285 285 284 281 280 279 278 279 280 280 278 275 273 269 266 265 262 260 259 255 255 255 254 254 251 248 243 240 237 235 236 239 239 239 239 242
285 287 287 288 288 289 289 289 287 284 283 282 281 282 282 282 280 277 275 273 271 267 264 260 257 256 257 253 253 252 250 247 244 241 238 235 233 234 237 237 240 242 244
289 290 290 290 290 291 291 290 288 287 286 285 284 281 279 278 276 275 274 271 268 267 262 260 257 253 252 250 249 247 248 246 244 239 236 236 234 234 234 235 237 241 242
291 291 292 292 292 291 291 291 290 288 285 283 280 277 275 274 272 270 269 268 267 265 263 258 253 252 251 247 248 246 245 244 240 232 235 233 233 233 233 232 234 238 241
293 294 295 295 295 295 295 294 292 290 286 283 280 276 273 271 268 267 268 268 267 266 261 254 251 247 240 238 240 237 240 241 232 224 232 234 232 232 231 232 232 236 240
295 296 297 297 298 299 298 295 292 288 284 283 281 277 273 271 272 273 274 274 270 266 256 244 238 231 228 231 229 224 230 231 226 222 229 235 233 228 230 229 231 234 236
298 300 299 301 300 298 296 292 288 286 285 283 280 278 276 277 277 279 275 264 254 250 237 222 209 226 220 221 223 226 224 223 220 221 223 231 229 233 228 227 224 229 230
Height
10919 10921 10928 10932 10936 10937 10942 10946 10947 10947 10952 10956 10955 10958 10962 10963 10961 10961 10961 10962 10964 10963 10963 10965 10966 10966 10968 10969 10971 10971 10970 10970 10969 10968 10968 10967 10964 10962 10960 10961 10961 10960 10960
10916 10915 10916 10922 10926 10928 10932 10936 10938 10939 10941 10944 10949 10952 10957 10956 10955 10958 10960 10962 10960 10959 10959 10958 10960 10960 10963 10963 10964 10964 10965 10966 10966 10965 10965 10964 10961 10957 10960 10959 10957 10956 10958
10908 10909 10910 10911 10916 10921 10921 10926 10929 10932 10931 10935 10939 10945 10948 10946 10947 10949 10952 10954 10955 10955 10953 10955 10954 10956 10958 10958 10957 10959 10959 10959 10960 10961 10961 10960 10959 10958 10955 10954 10953 10953 10953
10897 10900 10902 10903 10906 10909 10911 10913 10918 10924 10928 10930 10931 10933 10932 10934 10938 10940 10942 10944 10944 10945 10947 10948 10948 10950 10951 10951 10951 10952 10952 10952 10952 10952 10952 10953 10955 10955 10955 10953 10952 10950 10948
10889 10889 10892 10894 10896 10899 10901 10903 10906 10911 10916 10919 10918 10919 10921 10924 10928 10930 10932 10934 10935 10936 10939 10940 10941 10941 10942 10944 10945 10945 10944 10944 10944 10943 10943 10945 10947 10948 10947 10945 10944 10943 10942
10879 10879 10880 10881 10885 10888 10890 10892 10893 10896 10900 10903 10905 10908 10911 10913 10915 10918 10920 10922 10923 10924 10927 10929 10930 10932 10934 10935 10936 10936 10937 10937 10937 10937 10937 10939 10939 10938 10938 10939 10937 10938 10936
10871 10869 10869 10870 10872 10874 10878 10880 10882 10883 10885 10888 10891 10895 10897 10899 10902 10903 10906 10909 10910 10912 10914 10916 10919 10921 10923 10925 10928 10928 10928 10927 10929 10930 10931 10932 10932 10930 10931 10932 10930 10931 10930
10864 10861 10858 10857 10859 10860 10863 10867 10869 10871 10872 10873 10875 10879 10883 10884 10887 10890 10892 10894 10896 10898 10900 10903 10906 10909 10912 10914 10916 10918 10919 10920 10921 10922 10922 10924 10923 10923 10923 10923 10924 10923 10923
10851 10850 10848 10846 10845 10846 10848 10850 10853 10856 10859 10862 10862 10863 10866 10868 10872 10874 10876 10879 10880 10882 10884 10888 10891 10895 10899 10902 10904 10907 10909 10911 10911 10913 10912 10912 10914 10914 10916 10915 10916 10916 10915
10842 10839 10836 10834 10832 10832 10832 10834 10837 10840 10843 10845 10848 10849 10850 10852 10855 10858 10859 10862 10864 10866 10869 10872 10875 10879 10883 10888 10889 10892 10896 10901 10901 10902 10901 10901 10903 10905 10906 10908 10907 10908 10908
10835 10828 10824 10819 10819 10818 10817 10819 10820 10823 10826 10828 10829 10832 10834 10836 10839 10840 10843 10843 10843 10845 10849 10853 10857 10860 10864 10870 10872 10876 10879 10886 10888 10890 10890 10890 10891 10893 10894 10897 10898 10898 10899
10819 10815 10812 10807 10804 10803 10802 10803 10804 10805 10807 10809 10810 10811 10813 10814 10817 10820 10821 10825 10827 10827 10831 10835 10838 10841 10843 10849 10855 10860 10863 10868 10874 10876 10879 10878 10879 10880 10883 10886 10887 10889 10889
10802 10799 10796 10793 10790 10788 10787 10788 10789 10789 10790 10791 10792 10792 10793 10795 10795 10798 10798 10801 10804 10806 10807 10811 10815 10820 10824 10828 10834 10841 10845 10848 10855 10860 10861 10865 10867 10869 10870 10873 10874 10875 10877
10785 10782 10780 10777 10774 10772 10772 10772 10772 10773 10774 10774 10773 10773 10773 10772 10772 10775 10774 10774 10778 10782 10782 10784 10788 10793 10798 10802 10810 10818 10823 10829 10834 10839 10845 10849 10851 10855 10857 10860 10861 10863 10866
10769 10767 10765 10762 10759 10757 10756 10755 10755 10755 10757 10756 10755 10755 10755 10753 10750 10752 10751 10749 10750 10754 10757 10757 10758 10764 10771 10778 10785 10794 10801 10806 10813 10819 10825 10829 10834 10839 10842 10845 10848 10851 10853
10753 10751 10749 10747 10745 10744 10743 10741 10741 10740 10736 10736 10734 10734 10733 10733 10729 10729 10729 10728 10727 10727 10730 10729 10729 10733 10741 10746 10757 10765 10777 10784 10791 10799 10804 10810 10815 10819 10825 10830 10835 10836 10839
10738 10735 10733 10732 10730 10730 10730 10728 10724 10718 10718 10713 10712 10711 10709 10706 10707 10705 10704 10704 10704 10702 10703 10704 10704 10703 10709 10715 10723 10735 10744 10759 10767 10773 10781 10788 10794 10800 10807 10814 10819 10823 10823
10721 10719 10718 10716 10715 10714 10711 10709 10707 10703 10695 10689 10688 10687 10684 10684 10683 10681 10679 10678 10676 10676 10675 10678 10680 10680 10680 10685 10691 10700 10713 10724 10738 10748 10756 10764 10772 10778 10786 10795 10804 10805 10806
10706 10703 10702 10700 10697 10694 10690 10686 10682 10678 10676 10671 10663 10658 10659 10661 10660 10658 10654 10651 10650 10650 10649 10649 10651 10655 10657 10658 10663 10668 10680 10691 10703 10715 10726 10737 10746 10755 10764 10772 10780 10782 10784
10689 10686 10683 10680 10675 10671 10667 10664 10659 10653 10650 10646 10643 10638 10631 10634 10633 10628 10625 10624 10624 10623 10622 10623 10623 10626 10632 10634 10637 10641 10649 10657 10667 10682 10693 10707 10719 10729 10740 10751 10757 10763 10767
10670 10666 10661 10657 10653 10648 10642 10637 10632 10628 10625 10620 10616 10611 10607 10605 10603 10599 10595 10595 10593 10593 10593 10594 10597 10600 10604 10609 10613 10616 10620 10628 10636 10647 10660 10674 10690 10704 10715 10727 10734 10743 10750
10649 10644 10639 10633 10627 10621 10615 10610 10606 10601 10596 10591 10587 10582 10577 10576 10576 10574 10570 10569 10568 10567 10567 10570 10573 10576 10581 10586 10589 10595 10597 10604 10612 10621 10632 10646 10660 10675 10691 10703 10713 10721 10729
10628 10622 10616 10609 10604 10597 10589 10583 10577 10570 10565 10561 10558 10555 10552 10552 10551 10551 10550 10549 10547 10546 10546 10549 10552 10557 10563 10568 10572 10578 10580 10585 10595 10603 10610 10621 10633 10648 10665 10679 10691 10700 10707
10605 10599 10592 10584 10576 10569 10561 10554 10548 10543 10538 10535 10533 10532 10532 10532 10533 10533 10533 10533 10531 10529 10529 10533 10537 10542 10546 10551 10556 10562 10567 10573 10579 10588 10595 10604 10616 10628 10639 10653 10669 10679 10687
10583 10575 10568 10558 10549 10542 10536 10531 10526 10523 10520 10518 10518 10517 10517 10518 10518 10518 10518 10517 10515 10514 10515 10519 10525 10530 10534 10538 10542 10547 10554 10562 10569 10577 10584 10593 10602 10609 10617 10635 10649 10661 10666
10557 10549 10542 10534 10527 10521 10517 10514 10512 10511 10509 10508 10507 10507 10507 10507 10506 10505 10505 10504 10504 10504 10506 10512 10516 10519 10524 10528 10534 10539 10546 10553 10558 10566 10574 10582 10589 10594 10605 10618 10632 10640 10646